Location: Kaarina
(60.4167°N, 22.4167°E)
Time: 06:21:30
(UTC+03:00)

Landsat 7 - Pass Details

Date: 24 August 2019
Orbit: 701 x 703 km, 98.1° (Epoch: 19 September)

Event Time Altitude Azimuth Distance (km) Brightness Sun altitude
Exits shadow 22:38:29 10° 168° (SSE) 2,175 5.8 -10.7°
Reaches altitude 10° 22:38:30 10° 168° (SSE) 2,171 5.8 -10.7°
Maximum altitude 22:43:16 76° 254° (WSW) 731 4.0 -11.1°
Drops below altitude 10° 22:48:04 10° 341° (NNW) 2,185 7.6 -11.5°
Sets 22:50:20 0° 343° (NNW) 3,107 8.5 -11.7°
